Wind_Speed
5 5 4 4 4 5 5 6 7 7 7 7 8 8 9 8 8 8 8 9 9 10 10 10 10 10 10 11 11 11 11 12 11 11 12 11 12 12 13 13 13 14 15
6 6 5 5 5 5 6 7 7 8 8 8 8 8 8 8 8 8 9 9 9 10 10 10 10 11 11 11 11 11 12 11 12 11 11 11 12 13 13 13 14 15 15
7 7 6 6 5 5 6 7 7 8 7 8 7 8 8 8 9 8 9 10 10 10 10 10 11 11 11 12 12 12 12 12 11 12 12 12 11 12 12 13 14 15 15
7 7 7 6 6 6 6 7 7 7 8 7 8 9 9 9 9 9 9 10 10 10 10 11 11 11 12 12 12 12 12 11 11 12 13 13 13 13 13 13 14 15 16
7 7 7 7 7 6 7 6 6 7 6 7 8 9 9 9 9 9 9 9 9 10 10 11 12 12 11 11 11 11 11 11 11 12 13 13 13 12 13 14 15 15 16
8 7 7 7 7 7 7 6 6 7 7 7 8 9 9 9 10 10 10 10 10 10 10 11 12 12 13 11 11 11 11 11 12 12 13 14 14 13 14 15 16 16 16
8 8 8 8 8 8 7 7 7 7 8 8 9 9 10 10 10 10 11 11 11 11 11 11 11 12 13 12 11 11 12 12 13 14 13 14 15 15 16 16 17 18 19
9 9 8 9 8 8 7 7 8 8 8 9 9 10 10 10 10 10 10 11 11 11 12 12 12 12 13 12 12 12 12 13 13 14 14 15 15 16 17 18 19 19 19
11 11 10 10 9 8 8 8 9 9 9 9 9 10 10 10 10 10 10 11 11 12 12 13 13 13 13 13 14 14 14 14 14 15 15 15 16 17 18 19 19 19 20
13 13 12 11 11 10 10 10 10 10 10 10 10 10 11 11 11 11 11 12 12 13 13 13 14 13 14 14 14 15 15 16 16 16 16 16 17 17 18 18 19 20 21
14 13 13 12 12 11 11 12 11 11 11 11 11 11 11 12 12 13 12 13 13 13 13 14 14 14 14 15 15 16 17 17 17 17 18 18 18 18 18 19 19 19 20
14 14 13 12 12 12 12 12 11 12 12 12 12 12 12 13 13 13 13 13 13 14 14 14 14 15 15 16 17 17 17 17 17 18 18 19 19 20 20 19 19 19 19
14 13 13 12 12 13 12 12 12 12 13 13 12 12 13 13 14 13 13 14 14 14 14 14 15 15 16 16 16 16 17 17 18 18 19 20 20 20 20 20 20 20 20
13 13 13 12 12 12 13 13 13 13 13 13 14 14 14 14 14 14 14 14 14 14 15 15 16 16 16 16 16 16 17 18 19 19 20 20 20 20 20 20 20 20 19
14 13 13 13 13 13 13 13 13 13 14 14 15 14 14 14 14 14 15 15 15 15 15 16 16 16 16 17 17 17 18 18 19 19 20 20 20 20 20 20 20 20 20
15 14 13 13 13 13 13 13 14 14 14 15 15 15 15 15 15 16 16 16 17 17 17 17 17 17 17 17 17 18 19 19 19 19 19 20 20 21 21 21 21 21 21
15 13 13 13 13 13 13 13 13 14 15 15 14 15 15 16 16 16 16 16 17 17 18 17 17 17 18 19 19 19 19 19 19 19 20 21 21 21 21 21 21 21 21
14 13 13 13 12 12 12 13 13 14 14 14 14 14 16 16 16 16 16 16 17 17 17 16 16 17 18 19 19 19 19 20 20 20 20 20 21 21 21 20 20 21 20
14 13 13 13 13 12 13 14 13 13 13 13 13 13 14 15 15 15 15 16 16 17 17 17 17 18 18 19 19 20 20 20 20 20 21 21 21 21 20 20 20 20 21
14 14 13 13 13 13 13 13 13 13 13 13 14 14 13 14 15 15 15 16 16 17 17 18 18 18 19 19 20 20 21 21 21 20 20 20 20 20 20 20 20 21 21
15 15 14 14 14 14 14 13 13 13 13 13 13 13 13 14 15 15 16 17 17 17 17 18 19 19 19 20 20 20 20 21 21 20 20 20 20 20 20 20 21 21 22
16 16 15 15 14 14 13 13 13 13 13 13 13 14 14 14 15 17 17 17 18 18 18 19 19 20 20 20 21 21 21 21 21 21 21 20 21 21 21 21 21 22 22
17 16 15 14 14 14 13 13 13 14 14 14 15 15 16 16 17 17 18 19 19 19 19 19 20 20 20 21 21 21 21 21 21 21 21 21 21 22 22 22 22 22 23
17 17 16 15 15 15 14 13 14 14 15 15 15 16 17 17 18 18 19 19 18 18 19 20 20 20 20 21 22 21 21 21 21 21 21 21 22 22 22 22 22 22 22
17 17 17 16 16 16 15 15 15 16 16 17 17 17 17 17 18 18 18 18 18 19 20 21 21 21 21 22 22 22 22 22 21 21 22 22 22 23 22 22 22 22 22
17 17 17 17 17 17 17 17 17 17 17 17 18 18 18 17 18 17 18 18 19 20 21 21 21 21 22 22 22 22 22 22 22 21 22 22 22 22 22 22 22 22 22
Wind_Direction
323 323 312 291 280 267 264 263 256 252 250 251 250 246 246 242 238 240 244 243 245 250 251 251 251 253 257 260 264 266 265 264 265 259 259 256 252 250 250 244 243 244 245
322 312 309 298 284 270 268 266 262 258 253 254 254 247 247 240 239 242 245 248 255 257 255 253 252 254 258 263 263 262 265 264 265 262 261 257 255 255 253 247 248 246 244
322 312 306 300 290 283 273 269 264 263 257 255 250 244 246 247 245 245 249 252 253 254 255 255 256 258 261 262 260 261 263 263 266 265 264 261 261 260 255 253 253 250 247
310 311 307 302 297 291 281 272 262 259 254 249 245 246 248 249 248 245 248 251 252 254 254 255 256 259 261 258 258 258 261 265 267 268 269 266 263 262 262 256 253 250 249
305 304 300 301 302 295 292 283 262 260 254 250 252 252 250 249 248 250 252 254 253 253 255 259 258 258 261 263 262 265 264 266 268 269 271 269 265 264 265 262 258 253 251
306 300 292 295 296 292 290 280 266 261 259 258 257 258 254 253 255 256 254 256 256 254 257 262 263 263 264 269 266 269 264 268 270 271 272 270 268 265 265 264 260 257 256
302 299 290 289 291 289 282 272 267 266 266 262 258 262 260 260 258 257 255 256 258 259 261 266 267 268 272 272 268 266 264 268 270 272 272 272 272 269 266 266 263 261 260
295 299 292 291 289 283 274 270 268 268 267 264 263 263 260 259 258 257 255 256 261 264 266 267 267 268 270 268 268 265 265 268 272 274 275 277 279 275 271 267 267 266 264
289 290 290 288 284 279 275 275 270 268 267 269 269 263 260 258 258 256 256 260 264 266 266 266 266 267 269 268 268 265 267 270 274 276 276 277 278 278 276 274 273 270 268
290 286 286 283 278 277 275 276 273 266 268 272 270 263 263 260 260 261 259 261 267 269 266 266 266 268 268 269 269 270 271 271 273 275 276 278 279 280 280 280 277 273 271
291 287 284 281 277 276 276 277 274 266 266 270 269 264 264 262 261 263 264 265 269 272 271 269 268 271 270 270 270 272 273 272 272 273 276 279 280 281 281 281 278 276 274
291 287 281 278 275 276 276 276 273 269 267 269 268 266 267 264 263 265 266 268 273 275 275 275 274 274 274 274 273 273 273 273 274 275 277 280 281 281 282 282 279 277 274
291 287 283 275 272 275 276 273 273 273 271 270 269 268 269 263 265 265 266 269 275 277 275 276 276 277 277 276 276 275 275 276 276 278 279 280 281 281 282 281 278 275 275
290 289 285 280 275 275 275 274 272 272 271 271 271 271 271 265 266 266 268 272 276 278 276 277 277 277 276 277 277 276 277 276 277 279 281 281 282 282 282 281 279 277 275
288 288 286 279 277 276 277 274 274 276 273 273 273 272 271 269 268 269 271 273 276 278 277 277 277 277 278 279 280 280 281 280 280 281 282 283 282 282 282 280 279 277 274
282 283 284 280 277 278 276 274 275 278 279 277 273 271 270 271 270 269 272 274 276 278 279 277 274 274 277 282 283 284 283 282 283 283 283 283 282 283 281 280 277 276 274
280 278 279 281 280 280 277 274 276 277 277 277 275 271 270 270 270 270 272 275 277 279 281 278 275 275 277 282 284 285 284 284 284 283 285 284 285 284 282 281 279 275 275
277 273 275 279 278 280 279 279 279 277 278 277 278 276 271 268 270 273 275 276 277 278 280 278 277 278 280 282 284 284 285 284 284 285 286 287 286 286 282 281 280 277 276
270 272 274 275 276 280 280 279 281 279 280 280 279 280 277 272 272 274 276 276 277 277 278 277 278 280 281 282 284 286 286 285 286 286 288 287 286 285 283 280 278 278 279
270 273 275 275 277 278 278 278 277 276 278 281 281 280 279 280 276 276 278 278 277 277 277 279 279 281 283 285 287 287 286 285 285 286 288 287 286 285 283 281 281 280 280
272 273 274 277 277 276 276 275 274 274 277 282 283 281 281 282 280 280 283 282 279 278 279 280 281 283 285 287 288 288 287 285 285 285 286 287 285 284 284 283 283 283 282
271 272 274 276 277 278 277 275 275 277 277 280 283 284 283 282 283 282 284 284 281 280 281 282 283 285 286 287 288 288 288 286 285 284 284 285 285 285 285 285 285 284 284
269 271 273 275 276 276 276 275 275 275 278 281 284 286 284 283 283 282 283 281 281 281 282 283 286 287 287 289 288 287 287 287 285 286 285 285 285 286 286 286 286 286 286
268 268 268 270 274 275 274 274 275 277 279 282 284 286 285 283 284 284 283 281 281 282 284 284 287 287 288 290 289 288 287 288 288 288 289 288 288 287 287 287 285 285 285
268 266 267 268 271 273 273 274 277 279 281 281 284 286 286 283 285 285 282 282 282 284 286 287 287 286 287 288 289 288 286 286 286 287 288 287 288 288 287 285 284 284 284
267 265 266 267 268 270 273 275 279 282 283 282 284 286 285 284 284 284 283 283 284 285 286 286 287 287 288 290 290 289 286 284 284 285 287 287 286 285 285 285 285 285 285
Height
5873 5872 5871 5870 5869 5869 5869 5869 5870 5870 5870 5870 5870 5871 5871 5871 5872 5872 5873 5873 5874 5874 5874 5875 5875 5875 5875 5875 5875 5874 5874 5874 5874 5873 5873 5873 5873 5873 5873 5874 5875 5877 5878
5872 5871 5870 5869 5868 5868 5868 5868 5868 5868 5868 5868 5869 5869 5869 5870 5870 5870 5871 5871 5872 5872 5872 5873 5873 5873 5872 5872 5872 5872 5872 5872 5871 5871 5871 5871 5870 5870 5869 5870 5872 5873 5874
5871 5869 5868 5867 5867 5866 5866 5866 5866 5866 5866 5866 5867 5867 5868 5868 5868 5869 5869 5869 5869 5870 5870 5870 5870 5870 5870 5870 5870 5870 5869 5869 5869 5868 5868 5868 5868 5868 5867 5868 5869 5870 5870
5869 5868 5867 5866 5865 5864 5864 5864 5864 5864 5864 5865 5865 5866 5866 5866 5866 5867 5867 5867 5867 5867 5868 5868 5868 5868 5868 5867 5867 5867 5867 5866 5866 5866 5866 5865 5865 5865 5865 5865 5866 5866 5867
5867 5866 5865 5864 5864 5863 5863 5862 5862 5862 5863 5863 5863 5864 5864 5864 5865 5865 5865 5865 5865 5865 5865 5865 5865 5865 5865 5865 5865 5864 5864 5864 5864 5864 5863 5863 5862 5862 5863 5863 5863 5863 5864
5866 5865 5864 5863 5862 5862 5861 5861 5861 5861 5861 5861 5862 5862 5862 5862 5862 5863 5863 5863 5863 5863 5863 5862 5862 5862 5862 5862 5862 5862 5862 5861 5861 5861 5860 5860 5860 5859 5860 5860 5860 5860 5860
5864 5863 5862 5862 5861 5860 5860 5860 5860 5860 5859 5859 5860 5860 5860 5860 5860 5860 5860 5861 5860 5860 5860 5860 5860 5859 5859 5859 5859 5859 5859 5859 5858 5858 5857 5857 5856 5856 5856 5856 5856 5856 5856
5863 5861 5860 5860 5859 5859 5858 5858 5858 5858 5857 5858 5858 5858 5858 5859 5858 5858 5858 5858 5858 5858 5858 5857 5857 5857 5856 5856 5856 5856 5856 5856 5855 5854 5854 5853 5853 5853 5852 5852 5852 5852 5852
5861 5860 5859 5858 5857 5857 5856 5856 5856 5856 5856 5855 5855 5855 5856 5856 5856 5856 5856 5856 5855 5855 5855 5854 5854 5854 5853 5853 5853 5853 5853 5852 5851 5851 5850 5850 5849 5849 5848 5848 5848 5847 5847
5858 5857 5856 5855 5855 5854 5854 5854 5853 5853 5853 5853 5853 5853 5853 5853 5853 5853 5854 5853 5853 5852 5852 5851 5851 5850 5850 5849 5849 5849 5849 5848 5848 5847 5847 5846 5845 5845 5844 5843 5843 5843 5842
5855 5854 5853 5853 5852 5852 5852 5851 5851 5851 5851 5851 5850 5850 5850 5850 5850 5850 5850 5850 5850 5849 5849 5848 5848 5847 5846 5846 5845 5845 5845 5845 5844 5843 5843 5842 5841 5840 5839 5839 5838 5837 5837
5852 5851 5850 5849 5849 5849 5849 5848 5848 5848 5848 5848 5848 5848 5848 5847 5847 5847 5847 5847 5847 5846 5846 5845 5844 5844 5843 5842 5841 5841 5841 5840 5840 5839 5838 5837 5837 5836 5835 5834 5833 5832 5832
5848 5847 5847 5846 5846 5846 5846 5846 5845 5845 5845 5845 5845 5844 5844 5844 5844 5844 5844 5844 5843 5843 5842 5842 5841 5840 5839 5838 5838 5837 5836 5836 5835 5834 5833 5833 5832 5830 5830 5829 5828 5827 5826
5845 5845 5844 5843 5843 5843 5843 5842 5842 5842 5842 5842 5841 5841 5841 5841 5841 5841 5841 5840 5840 5840 5839 5838 5837 5836 5835 5834 5834 5833 5832 5831 5830 5830 5828 5827 5826 5825 5824 5823 5822 5821 5821
5843 5842 5841 5840 5840 5839 5839 5839 5839 5838 5838 5838 5838 5838 5838 5838 5837 5837 5837 5837 5837 5836 5835 5834 5833 5832 5831 5830 5830 5829 5828 5827 5826 5825 5823 5822 5821 5820 5818 5817 5816 5816 5815
5840 5839 5838 5837 5836 5836 5836 5835 5835 5835 5834 5834 5834 5834 5834 5834 5834 5833 5833 5833 5832 5832 5831 5830 5829 5828 5828 5827 5825 5824 5823 5822 5820 5819 5818 5817 5815 5814 5812 5811 5810 5810 5809
5836 5835 5835 5834 5833 5833 5832 5832 5832 5831 5831 5830 5830 5830 5829 5829 5829 5829 5829 5829 5828 5827 5826 5825 5824 5824 5823 5822 5821 5820 5818 5817 5816 5814 5813 5811 5810 5808 5806 5805 5804 5804 5804
5833 5832 5831 5831 5830 5829 5829 5828 5827 5827 5827 5826 5826 5825 5825 5825 5825 5825 5825 5824 5824 5823 5822 5821 5820 5819 5819 5818 5817 5815 5814 5812 5811 5809 5808 5806 5804 5802 5801 5799 5799 5798 5798
5829 5829 5828 5827 5827 5826 5825 5825 5824 5823 5823 5823 5822 5822 5821 5821 5821 5821 5820 5820 5819 5819 5818 5816 5815 5815 5814 5813 5812 5811 5809 5807 5806 5805 5803 5801 5800 5798 5796 5795 5794 5794 5793
5826 5825 5824 5824 5823 5822 5821 5821 5821 5820 5820 5819 5819 5819 5818 5817 5817 5816 5816 5815 5815 5814 5813 5812 5811 5811 5810 5808 5807 5805 5804 5802 5801 5800 5798 5796 5795 5793 5791 5790 5790 5789 5788
5822 5822 5821 5820 5819 5818 5818 5817 5817 5817 5816 5816 5816 5815 5814 5814 5813 5812 5812 5811 5810 5809 5809 5808 5807 5806 5805 5803 5802 5800 5799 5797 5796 5794 5793 5791 5790 5788 5787 5785 5785 5784 5783
5818 5818 5817 5816 5815 5814 5814 5813 5814 5813 5813 5813 5812 5811 5810 5810 5809 5809 5808 5807 5806 5805 5804 5803 5802 5801 5799 5798 5796 5795 5793 5792 5791 5790 5788 5786 5785 5783 5782 5781 5780 5779 5778
5814 5813 5813 5813 5812 5811 5810 5810 5810 5810 5809 5809 5808 5807 5806 5806 5805 5804 5803 5802 5800 5800 5799 5798 5797 5795 5794 5793 5791 5789 5788 5786 5785 5784 5782 5781 5780 5778 5777 5775 5774 5773 5772
5809 5809 5809 5809 5808 5807 5807 5807 5806 5806 5805 5805 5804 5803 5802 5801 5800 5799 5798 5796 5795 5794 5793 5793 5792 5790 5788 5787 5785 5784 5782 5781 5780 5778 5777 5776 5774 5773 5771 5770 5768 5767 5765
5804 5804 5804 5804 5804 5803 5803 5803 5802 5802 5801 5800 5800 5799 5797 5796 5795 5794 5792 5791 5790 5789 5788 5787 5786 5784 5783 5781 5779 5778 5776 5775 5774 5773 5771 5769 5768 5766 5765 5764 5762 5761 5759
5800 5800 5800 5799 5799 5799 5799 5798 5798 5797 5796 5796 5795 5794 5792 5791 5790 5789 5787 5786 5785 5784 5782 5781 5780 5778 5777 5775 5773 5772 5770 5769 5768 5767 5765 5763 5762 5760 5759 5757 5756 5754 5753